Time,TemperatureF,DewpointF,PressureIn,WindDirection,WindDirectionDegrees,WindSpeedMPH,WindSpeedGustMPH,Humidity,HourlyPrecipIn,Conditions,Clouds,dailyrainin,SoftwareType,DateUTC
2013-02-16 00:02:00,45.0,12.0,30.24,SSE,163,3.0,-999.0,26,-99.99,,,-99.99,,2013-02-16 07:02:00,
2013-02-16 00:11:00,45.0,12.0,30.24,SSE,163,3.0,-999.0,26,-99.99,,,-99.99,,2013-02-16 07:11:00,
2013-02-16 00:21:00,45.0,12.0,30.24,SSE,165,2.0,-999.0,26,-99.99,,,-99.99,,2013-02-16 07:21:00,
2013-02-16 00:31:00,45.0,12.0,30.24,SSE,165,3.0,-999.0,26,-99.99,,,-99.99,,2013-02-16 07:31:00,
2013-02-16 00:41:00,45.0,12.0,30.24,SSE,165,3.0,-999.0,26,-99.99,,,-99.99,,2013-02-16 07:41:00,
2013-02-16 00:52:00,45.0,10.0,30.24,SSE,161,4.0,-999.0,24,-99.99,,,-99.99,,2013-02-16 07:52:00,
2013-02-16 01:01:00,45.0,10.0,30.24,SSE,161,2.0,-999.0,24,-99.99,,,-99.99,,2013-02-16 08:01:00,
2013-02-16 01:11:00,45.0,10.0,30.24,SSE,161,2.0,-999.0,24,-99.99,,,-99.99,,2013-02-16 08:11:00,
2013-02-16 01:21:00,45.0,9.0,30.24,SSE,161,3.0,-999.0,23,-99.99,,,-99.99,,2013-02-16 08:21:00,
2013-02-16 01:31:00,45.0,9.0,30.24,SSE,161,3.0,-999.0,23,-99.99,,,-99.99,,2013-02-16 08:31:00,
2013-02-16 01:41:00,45.0,9.0,30.24,SSE,161,3.0,-999.0,23,-99.99,,,-99.99,,2013-02-16 08:41:00,
2013-02-16 01:52:00,44.0,9.0,30.24,SSE,161,2.0,-999.0,23,-99.99,,,-99.99,,2013-02-16 08:52:00,
2013-02-16 02:01:00,44.0,9.0,30.24,SSE,161,2.0,-999.0,23,-99.99,,,-99.99,,2013-02-16 09:01:00,
2013-02-16 02:11:00,44.0,9.0,30.24,SSE,161,2.0,-999.0,23,-99.99,,,-99.99,,2013-02-16 09:11:00,
2013-02-16 02:21:00,44.0,9.0,30.24,SSE,161,1.0,-999.0,23,-99.99,,,-99.99,,2013-02-16 09:21:00,
2013-02-16 02:31:00,43.0,8.0,30.24,SSE,161,1.0,-999.0,23,-99.99,,,-99.99,,2013-02-16 09:31:00,
2013-02-16 02:42:00,43.0,8.0,30.24,SSE,161,1.0,-999.0,23,-99.99,,,-99.99,,2013-02-16 09:42:00,
2013-02-16 02:51:00,43.0,9.0,30.24,SSE,161,1.0,-999.0,24,-99.99,,,-99.99,,2013-02-16 09:51:00,
2013-02-16 03:01:00,43.0,10.0,30.24,SSE,161,0.0,-999.0,25,-99.99,,,-99.99,,2013-02-16 10:01:00,
2013-02-16 03:11:00,43.0,10.0,30.24,SSE,161,0.0,-999.0,25,-99.99,,,-99.99,,2013-02-16 10:11:00,
2013-02-16 03:21:00,42.0,10.0,30.24,SSE,161,0.0,-999.0,26,-99.99,,,-99.99,,2013-02-16 10:21:00,
2013-02-16 03:31:00,42.0,10.0,30.24,SSE,161,1.0,-999.0,26,-99.99,,,-99.99,,2013-02-16 10:31:00,
2013-02-16 03:41:00,42.0,10.0,30.24,SSE,161,1.0,-999.0,26,-99.99,,,-99.99,,2013-02-16 10:41:00,
2013-02-16 03:52:00,42.0,10.0,30.24,SSE,161,0.0,-999.0,26,-99.99,,,-99.99,,2013-02-16 10:52:00,
2013-02-16 04:01:00,41.0,10.0,30.24,SSE,161,0.0,-999.0,27,-99.99,,,-99.99,,2013-02-16 11:01:00,
2013-02-16 04:11:00,41.0,10.0,30.24,SSE,161,0.0,-999.0,27,-99.99,,,-99.99,,2013-02-16 11:11:00,
2013-02-16 04:22:00,41.0,10.0,30.24,SSE,161,2.0,-999.0,28,-99.99,,,-99.99,,2013-02-16 11:22:00,
2013-02-16 04:31:00,41.0,10.0,30.24,SSE,161,1.0,-999.0,27,-99.99,,,-99.99,,2013-02-16 11:31:00,
2013-02-16 04:42:00,41.0,10.0,30.24,SSE,161,1.0,-999.0,27,-99.99,,,-99.99,,2013-02-16 11:42:00,
2013-02-16 04:52:00,41.0,10.0,30.24,SSE,161,1.0,-999.0,27,-99.99,,,-99.99,,2013-02-16 11:52:00,
2013-02-16 05:01:00,42.0,11.0,30.24,SSE,153,0.0,-999.0,28,-99.99,,,-99.99,,2013-02-16 12:01:00,
2013-02-16 05:12:00,42.0,11.0,30.24,SSE,153,0.0,-999.0,28,-99.99,,,-99.99,,2013-02-16 12:12:00,
2013-02-16 05:22:00,40.0,10.0,30.23,SSE,153,0.0,-999.0,29,-99.99,,,-99.99,,2013-02-16 12:22:00,
2013-02-16 05:32:00,38.0,11.0,30.23,SSE,153,0.0,-999.0,32,-99.99,,,-99.99,,2013-02-16 12:32:00,
2013-02-16 05:42:00,38.0,11.0,30.23,SSE,153,0.0,-999.0,32,-99.99,,,-99.99,,2013-02-16 12:42:00,
2013-02-16 05:52:00,37.0,11.0,30.23,SSE,153,1.0,-999.0,34,-99.99,,,-99.99,,2013-02-16 12:52:00,
2013-02-16 06:01:00,40.0,10.0,30.22,SSE,160,3.0,-999.0,29,-99.99,,,-99.99,,2013-02-16 13:01:00,
2013-02-16 06:11:00,44.0,10.0,30.22,SW,214,6.0,-999.0,25,-99.99,,,-99.99,,2013-02-16 13:11:00,
2013-02-16 06:21:00,44.0,10.0,30.22,SW,214,6.0,-999.0,25,-99.99,,,-99.99,,2013-02-16 13:21:00,
2013-02-16 06:31:00,45.0,11.0,30.22,SSE,157,7.0,-999.0,25,-99.99,,,-99.99,,2013-02-16 13:31:00,
2013-02-16 06:41:00,45.0,11.0,30.22,SSE,157,7.0,-999.0,25,-99.99,,,-99.99,,2013-02-16 13:41:00,
2013-02-16 06:51:00,44.0,10.0,30.23,SE,134,6.0,-999.0,24,-99.99,,,-99.99,,2013-02-16 13:51:00,
2013-02-16 07:01:00,44.0,10.0,30.23,SE,143,8.0,-999.0,25,-99.99,,,-99.99,,2013-02-16 14:01:00,
2013-02-16 07:21:00,44.0,10.0,30.23,South,169,9.0,-999.0,24,-99.99,,,-99.99,,2013-02-16 14:21:00,
2013-02-16 07:32:00,45.0,10.0,30.23,SSE,153,9.0,-999.0,24,-99.99,,,-99.99,,2013-02-16 14:32:00,
2013-02-16 07:41:00,45.0,10.0,30.23,SSE,153,9.0,-999.0,24,-99.99,,,-99.99,,2013-02-16 14:41:00,
2013-02-16 07:52:00,46.0,10.0,30.24,SSE,149,10.0,-999.0,23,-99.99,,,-99.99,,2013-02-16 14:52:00,
2013-02-16 08:01:00,47.0,11.0,30.24,SE,128,9.0,-999.0,23,-99.99,,,-99.99,,2013-02-16 15:01:00,
2013-02-16 08:21:00,47.0,10.0,30.23,SE,134,10.0,-999.0,22,-99.99,,,-99.99,,2013-02-16 15:21:00,
2013-02-16 08:31:00,48.0,10.0,30.24,SE,146,9.0,-999.0,21,-99.99,,,-99.99,,2013-02-16 15:31:00,
2013-02-16 08:41:00,48.0,10.0,30.24,SE,146,9.0,-999.0,21,-99.99,,,-99.99,,2013-02-16 15:41:00,
2013-02-16 08:52:00,49.0,10.0,30.24,SSE,153,9.0,-999.0,20,-99.99,,,-99.99,,2013-02-16 15:52:00,
2013-02-16 09:01:00,50.0,12.0,30.24,SSE,150,10.0,-999.0,21,-99.99,,,-99.99,,2013-02-16 16:01:00,
2013-02-16 09:21:00,51.0,12.0,30.24,SE,137,10.0,-999.0,21,-99.99,,,-99.99,,2013-02-16 16:21:00,
2013-02-16 09:32:00,51.0,9.0,30.24,SSE,152,10.0,-999.0,18,-99.99,,,-99.99,,2013-02-16 16:32:00,
2013-02-16 09:41:00,51.0,9.0,30.24,SSE,152,10.0,-999.0,18,-99.99,,,-99.99,,2013-02-16 16:41:00,
2013-02-16 09:52:00,52.0,12.0,30.24,SSE,158,9.0,-999.0,20,-99.99,,,-99.99,,2013-02-16 16:52:00,
2013-02-16 10:01:00,53.0,12.0,30.24,SE,144,10.0,-999.0,19,-99.99,,,-99.99,,2013-02-16 17:01:00,
2013-02-16 10:11:00,53.0,12.0,30.24,SE,144,10.0,-999.0,19,-99.99,,,-99.99,,2013-02-16 17:11:00,
2013-02-16 10:21:00,54.0,13.0,30.23,SE,136,8.0,-999.0,19,-99.99,,,-99.99,,2013-02-16 17:21:00,
2013-02-16 10:31:00,54.0,10.0,30.24,SE,143,9.0,-999.0,17,-99.99,,,-99.99,,2013-02-16 17:31:00,
2013-02-16 10:41:00,54.0,10.0,30.24,SE,143,9.0,-999.0,17,-99.99,,,-99.99,,2013-02-16 17:41:00,
2013-02-16 10:52:00,55.0,12.0,30.23,SSE,163,10.0,-999.0,18,-99.99,,,-99.99,,2013-02-16 17:52:00,
2013-02-16 11:01:00,56.0,10.0,30.23,SE,146,10.0,-999.0,16,-99.99,,,-99.99,,2013-02-16 18:01:00,
2013-02-16 11:11:00,56.0,9.0,30.22,SE,140,11.0,-999.0,15,-99.99,,,-99.99,,2013-02-16 18:11:00,
2013-02-16 11:21:00,56.0,9.0,30.22,SE,140,11.0,-999.0,15,-99.99,,,-99.99,,2013-02-16 18:21:00,
2013-02-16 11:32:00,57.0,11.0,30.22,SSE,159,10.0,-999.0,16,-99.99,,,-99.99,,2013-02-16 18:32:00,
2013-02-16 11:41:00,57.0,11.0,30.22,SSE,159,10.0,-999.0,16,-99.99,,,-99.99,,2013-02-16 18:41:00,
2013-02-16 11:52:00,58.0,12.0,30.21,SE,135,10.0,-999.0,16,-99.99,,,-99.99,,2013-02-16 18:52:00,
2013-02-16 12:01:00,59.0,11.0,30.20,SE,136,10.0,-999.0,15,-99.99,,,-99.99,,2013-02-16 19:01:00,
2013-02-16 12:11:00,59.0,11.0,30.20,SE,136,10.0,-999.0,15,-99.99,,,-99.99,,2013-02-16 19:11:00,
2013-02-16 12:21:00,59.0,11.0,30.20,SE,136,10.0,-999.0,15,-99.99,,,-99.99,,2013-02-16 19:21:00,
2013-02-16 12:31:00,60.0,9.0,30.18,SSE,153,9.0,-999.0,13,-99.99,,,-99.99,,2013-02-16 19:31:00,
2013-02-16 12:42:00,60.0,9.0,30.18,SSE,153,9.0,-999.0,13,-99.99,,,-99.99,,2013-02-16 19:42:00,
2013-02-16 12:52:00,61.0,11.0,30.16,SE,146,9.0,-999.0,14,-99.99,,,-99.99,,2013-02-16 19:52:00,
2013-02-16 13:01:00,61.0,11.0,30.16,SE,146,9.0,-999.0,14,-99.99,,,-99.99,,2013-02-16 20:01:00,
2013-02-16 13:11:00,63.0,11.0,30.14,SE,139,9.0,-999.0,13,-99.99,,,-99.99,,2013-02-16 20:11:00,
2013-02-16 13:21:00,63.0,11.0,30.14,SE,139,9.0,-999.0,13,-99.99,,,-99.99,,2013-02-16 20:21:00,
2013-02-16 13:31:00,63.0,11.0,30.14,SE,145,10.0,-999.0,13,-99.99,,,-99.99,,2013-02-16 20:31:00,
2013-02-16 13:42:00,63.0,11.0,30.14,SE,145,10.0,-999.0,13,-99.99,,,-99.99,,2013-02-16 20:42:00,
2013-02-16 13:52:00,63.0,10.0,30.12,SE,125,8.0,-999.0,12,-99.99,,,-99.99,,2013-02-16 20:52:00,
2013-02-16 14:01:00,63.0,10.0,30.11,SE,132,8.0,-999.0,12,-99.99,,,-99.99,,2013-02-16 21:01:00,
2013-02-16 14:11:00,63.0,10.0,30.11,SE,132,8.0,-999.0,12,-99.99,,,-99.99,,2013-02-16 21:11:00,
2013-02-16 14:21:00,63.0,10.0,30.10,ESE,123,8.0,-999.0,12,-99.99,,,-99.99,,2013-02-16 21:21:00,
2013-02-16 14:31:00,63.0,10.0,30.10,ESE,123,8.0,-999.0,12,-99.99,,,-99.99,,2013-02-16 21:31:00,
2013-02-16 14:41:00,63.0,10.0,30.10,ESE,123,8.0,-999.0,12,-99.99,,,-99.99,,2013-02-16 21:41:00,
2013-02-16 14:52:00,64.0,8.0,30.09,ESE,115,5.0,-999.0,11,-99.99,,,-99.99,,2013-02-16 21:52:00,
2013-02-16 15:01:00,64.0,6.0,30.08,ESE,111,6.0,-999.0,10,-99.99,,,-99.99,,2013-02-16 22:01:00,
2013-02-16 15:11:00,64.0,6.0,30.08,ESE,111,6.0,-999.0,10,-99.99,,,-99.99,,2013-02-16 22:11:00,
2013-02-16 15:21:00,64.0,6.0,30.07,South,173,5.0,-999.0,10,-99.99,,,-99.99,,2013-02-16 22:21:00,
2013-02-16 15:31:00,64.0,6.0,30.06,SE,134,6.0,-999.0,10,-99.99,,,-99.99,,2013-02-16 22:31:00,
2013-02-16 15:42:00,64.0,6.0,30.06,SE,134,6.0,-999.0,10,-99.99,,,-99.99,,2013-02-16 22:42:00,
2013-02-16 15:52:00,64.0,6.0,30.06,ESE,117,6.0,-999.0,10,-99.99,,,-99.99,,2013-02-16 22:52:00,
2013-02-16 16:02:00,64.0,6.0,30.05,ESE,121,5.0,-999.0,10,-99.99,,,-99.99,,2013-02-16 23:02:00,
2013-02-16 16:11:00,64.0,6.0,30.04,SSE,149,6.0,-999.0,10,-99.99,,,-99.99,,2013-02-16 23:11:00,
2013-02-16 16:21:00,64.0,6.0,30.04,SSE,149,6.0,-999.0,10,-99.99,,,-99.99,,2013-02-16 23:21:00,
2013-02-16 16:31:00,64.0,6.0,30.04,SE,133,6.0,-999.0,10,-99.99,,,-99.99,,2013-02-16 23:31:00,
2013-02-16 16:41:00,64.0,6.0,30.04,SE,133,6.0,-999.0,10,-99.99,,,-99.99,,2013-02-16 23:41:00,
2013-02-16 16:52:00,63.0,6.0,30.04,SE,134,7.0,-999.0,10,-99.99,,,-99.99,,2013-02-16 23:52:00,
2013-02-16 17:01:00,62.0,5.0,30.03,SE,143,5.0,-999.0,10,-99.99,,,-99.99,,2013-02-17 00:01:00,
2013-02-16 17:11:00,62.0,5.0,30.03,SE,143,5.0,-999.0,10,-99.99,,,-99.99,,2013-02-17 00:11:00,
2013-02-16 17:21:00,62.0,5.0,30.03,SE,142,6.0,-999.0,10,-99.99,,,-99.99,,2013-02-17 00:21:00,
2013-02-16 17:31:00,61.0,6.0,30.03,SSE,160,6.0,-999.0,11,-99.99,,,-99.99,,2013-02-17 00:31:00,
2013-02-16 17:41:00,61.0,6.0,30.03,SSE,160,6.0,-999.0,11,-99.99,,,-99.99,,2013-02-17 00:41:00,
2013-02-16 17:52:00,60.0,5.0,30.03,SSE,152,4.0,-999.0,11,-99.99,,,-99.99,,2013-02-17 00:52:00,
2013-02-16 18:01:00,58.0,7.0,30.03,SSE,152,0.0,-999.0,13,-99.99,,,-99.99,,2013-02-17 01:01:00,
2013-02-16 18:11:00,58.0,7.0,30.03,SSE,152,0.0,-999.0,13,-99.99,,,-99.99,,2013-02-17 01:11:00,
2013-02-16 18:21:00,56.0,7.0,30.03,SSE,155,0.0,-999.0,14,-99.99,,,-99.99,,2013-02-17 01:21:00,
2013-02-16 18:31:00,55.0,8.0,30.03,South,175,0.0,-999.0,15,-99.99,,,-99.99,,2013-02-17 01:31:00,
2013-02-16 18:41:00,55.0,8.0,30.03,South,175,0.0,-999.0,15,-99.99,,,-99.99,,2013-02-17 01:41:00,
2013-02-16 18:52:00,54.0,7.0,30.03,South,175,0.0,-999.0,15,-99.99,,,-99.99,,2013-02-17 01:52:00,
2013-02-16 19:01:00,52.0,7.0,30.03,South,175,0.0,-999.0,16,-99.99,,,-99.99,,2013-02-17 02:01:00,
2013-02-16 19:11:00,52.0,7.0,30.03,South,175,0.0,-999.0,16,-99.99,,,-99.99,,2013-02-17 02:11:00,
2013-02-16 19:21:00,52.0,9.0,30.04,South,175,0.0,-999.0,17,-99.99,,,-99.99,,2013-02-17 02:21:00,
2013-02-16 19:31:00,51.0,8.0,30.04,South,175,0.0,-999.0,17,-99.99,,,-99.99,,2013-02-17 02:31:00,
2013-02-16 19:41:00,51.0,8.0,30.04,South,175,0.0,-999.0,17,-99.99,,,-99.99,,2013-02-17 02:41:00,
2013-02-16 19:52:00,50.0,7.0,30.04,South,175,0.0,-999.0,17,-99.99,,,-99.99,,2013-02-17 02:52:00,
2013-02-16 20:01:00,50.0,8.0,30.03,South,175,0.0,-999.0,18,-99.99,,,-99.99,,2013-02-17 03:01:00,
2013-02-16 20:11:00,50.0,8.0,30.03,South,175,0.0,-999.0,18,-99.99,,,-99.99,,2013-02-17 03:11:00,
2013-02-16 20:21:00,50.0,8.0,30.03,SSE,157,2.0,-999.0,18,-99.99,,,-99.99,,2013-02-17 03:21:00,
2013-02-16 20:31:00,50.0,8.0,30.03,South,177,2.0,-999.0,18,-99.99,,,-99.99,,2013-02-17 03:31:00,
2013-02-16 20:41:00,50.0,8.0,30.03,South,177,2.0,-999.0,18,-99.99,,,-99.99,,2013-02-17 03:41:00,
2013-02-16 20:52:00,51.0,8.0,30.03,South,173,2.0,-999.0,17,-99.99,,,-99.99,,2013-02-17 03:52:00,
2013-02-16 21:01:00,51.0,9.0,30.04,SSE,165,2.0,-999.0,18,-99.99,,,-99.99,,2013-02-17 04:01:00,
2013-02-16 21:11:00,50.0,7.0,30.03,SSE,159,4.0,-999.0,17,-99.99,,,-99.99,,2013-02-17 04:11:00,
2013-02-16 21:21:00,50.0,7.0,30.03,SSE,159,4.0,-999.0,17,-99.99,,,-99.99,,2013-02-17 04:21:00,
2013-02-16 21:31:00,50.0,7.0,30.03,South,171,3.0,-999.0,17,-99.99,,,-99.99,,2013-02-17 04:31:00,
2013-02-16 21:41:00,50.0,7.0,30.03,South,171,3.0,-999.0,17,-99.99,,,-99.99,,2013-02-17 04:41:00,
2013-02-16 21:52:00,50.0,7.0,30.03,SSE,153,4.0,-999.0,17,-99.99,,,-99.99,,2013-02-17 04:52:00,
2013-02-16 22:01:00,50.0,7.0,30.03,SSE,153,6.0,-999.0,17,-99.99,,,-99.99,,2013-02-17 05:01:00,
2013-02-16 22:11:00,49.0,7.0,30.02,SSE,156,2.0,-999.0,18,-99.99,,,-99.99,,2013-02-17 05:11:00,
2013-02-16 22:22:00,49.0,7.0,30.02,SSE,156,2.0,-999.0,18,-99.99,,,-99.99,,2013-02-17 05:22:00,
2013-02-16 22:32:00,48.0,7.0,30.02,SSE,152,2.0,-999.0,18,-99.99,,,-99.99,,2013-02-17 05:32:00,
2013-02-16 22:42:00,48.0,7.0,30.02,SSE,152,2.0,-999.0,18,-99.99,,,-99.99,,2013-02-17 05:42:00,
2013-02-16 22:52:00,48.0,8.0,30.02,SSE,158,1.0,-999.0,19,-99.99,,,-99.99,,2013-02-17 05:52:00,
2013-02-16 23:01:00,47.0,7.0,30.01,SSE,158,0.0,-999.0,19,-99.99,,,-99.99,,2013-02-17 06:01:00,
2013-02-16 23:11:00,47.0,7.0,30.01,SSE,158,0.0,-999.0,19,-99.99,,,-99.99,,2013-02-17 06:11:00,
2013-02-16 23:21:00,46.0,7.0,30.01,SSE,158,0.0,-999.0,20,-99.99,,,-99.99,,2013-02-17 06:21:00,
2013-02-16 23:31:00,46.0,8.0,30.00,SSE,158,0.0,-999.0,21,-99.99,,,-99.99,,2013-02-17 06:31:00,
2013-02-16 23:41:00,46.0,8.0,30.00,SSE,158,0.0,-999.0,21,-99.99,,,-99.99,,2013-02-17 06:41:00,
2013-02-16 23:52:00,46.0,8.0,30.00,SSE,158,0.0,-999.0,21,-99.99,,,-99.99,,2013-02-17 06:52:00,